Content
SEND FEEDBACK

Daily
Averages
Monthly
Summary
United States of America

LAKE, WYOMING


Home > North America > United States > Wyoming
Elevation: 7769 feet     Latitude: 44 33N     Longitude: 110 24W

WEATHER
 
SELECT A DAY
Number of Records: 295,324;   Date Range: 1/1/95 - 7/26/14
 
SHARE

PRINT THIS DATA

[ ← Previous Day ]
WEATHER ALMANAC - FEBRUARY 13, 2013
[ Next Day → ]
[ °C ]   °F
Weather ElementAverageHighLow
Temperature20.9 °F26.1 °F (12:56 pm)16 °F (1:56 am)
Dewpoint15.6 °F17.1 °F (11:56 am)14 °F (1:56 am)
Humidity80.4 %92 % (1:56 am)69 % (12:56 pm)
Barometer30.18 in30.28 in (1:56 am)30.13 in (1:56 pm)
Wind Speed5.1 mph10.4 mph (11:56 am)
Wind Gust23 mph (12:56 pm)
Weather ElementAverage
Wind DirectionESE (118.7 °)

Weather ElementTotal
Precipitation0.01 in
Heating Degree Days44 (Base 65)
Averaged from 23 records on February 13, 2013
WEATHER CONDITIONS BREAKOUT
WIND DIRECTION BREAKOUT
WEATHER BY HOUR - FEBRUARY 13, 2013
[ °C ]   °F
Local TimeTemperatureDewpointHumidityBarometerVisibilityWind DirectionWind SpeedGust SpeedPrecipitationEventsConditions
1:56 AM16.0 °F14.0 °F92 %30.28 inCalm
2:56 AM16.0 °F14.0 °F92 %30.23 inCalm
3:56 AM17.1 °F14.0 °F88 %30.21 inCalm
4:56 AM18.0 °F14.0 °F84 %30.21 inVariable3.5 mph
5:56 AM18.0 °F14.0 °F84 %30.21 inVariable3.5 mph
6:56 AM18.0 °F14.0 °F84 %30.21 inCalm0.01 in
7:56 AM18.0 °F14.0 °F84 %30.21 inCalm
8:56 AM19.0 °F14.0 °F81 %30.22 inVariable3.5 mph
9:56 AM21.9 °F15.1 °F75 %30.18 inCalm
10:56 AM24.1 °F16.0 °F71 %30.19 inWest (260°)9.2 mph
11:56 AM24.1 °F17.1 °F75 %30.17 inWest (260°)10.4 mph21.9 mph
12:56 PM26.1 °F17.1 °F69 %30.14 inWest (280°)8.1 mph23.0 mph
1:56 PM25.0 °F16.0 °F69 %30.13 inWSW (250°)10.4 mph21.9 mph
2:56 PM23.0 °F17.1 °F78 %30.16 inWest (270°)8.1 mph17.3 mph
3:56 PM21.9 °F17.1 °F82 %30.16 inVariable6.9 mph16.1 mph
4:56 PM21.9 °F17.1 °F82 %30.16 inVariable6.9 mph19.6 mph
5:56 PM21.0 °F16.0 °F81 %30.15 inWest (270°)8.1 mph18.4 mph
6:56 PM21.0 °F16.0 °F81 %30.17 inWest (270°)8.1 mph
7:56 PM21.9 °F17.1 °F82 %30.17 inVariable5.8 mph
8:56 PM21.9 °F17.1 °F82 %30.16 inVariable6.9 mph
9:56 PM21.9 °F16.0 °F78 %30.14 inWest (280°)6.9 mph
10:56 PM21.9 °F16.0 °F78 %30.14 inWNW (290°)6.9 mph
11:56 PM21.9 °F16.0 °F78 %30.15 inWNW (300°)4.6 mph
Hourly data recorded from KP60, located miles away from Lake, Wyoming







STORIES FROM OUR PARTNERS